This is the latest recevied weather packets stored in our database for station/object YD2CLX-11. If no packets are shown the sender has not sent any weather packets the latest 10 day(s).
| Time | Temp. | Humidity | Pressure | Rain* | Wind** | Luminosity | Snow |
|---|---|---|---|---|---|---|---|
| 1788154888 | 38.33° C | 39% | 997.8 hPa | - | - | - | - |
| 1788154286 | 37.22° C | 41% | 997.9 hPa | - | - | - | - |
| 1788153684 | 37.22° C | 40% | 998.1 hPa | - | - | - | - |
| 1788153083 | 37.22° C | 42% | 998.3 hPa | - | - | - | - |
| 1788152483 | 37.78° C | 41% | 998.3 hPa | - | - | - | - |
| 1788151883 | 36.11° C | 42% | 998.6 hPa | - | - | - | - |
| 1788151280 | 36.11° C | 42% | 998.7 hPa | - | - | - | - |
| 1788150679 | 36.67° C | 41% | 998.8 hPa | - | - | - | - |
| 1788150078 | 38.33° C | 39% | 999 hPa | - | - | - | - |
| 1788149478 | 37.22° C | 39% | 999.2 hPa | - | - | - | - |
| 1788148877 | 37.78° C | 39% | 999.3 hPa | - | - | - | - |
| 1788148276 | 36.67° C | 42% | 999.5 hPa | - | - | - | - |
| 1788147674 | 36.67° C | 41% | 999.8 hPa | - | - | - | - |
| 1788147073 | 37.78° C | 40% | 1000 hPa | - | - | - | - |
| 1788146472 | 36.67° C | 42% | 1000.1 hPa | - | - | - | - |
| 1788145871 | 37.22° C | 41% | 1000.5 hPa | - | - | - | - |
| 1788145269 | 37.78° C | 40% | 1000.6 hPa | - | - | - | - |
| 1788144669 | 36.11° C | 43% | 1000.8 hPa | - | - | - | - |
| 1788144067 | 35° C | 47% | 1001 hPa | - | - | - | - |
| 1788143466 | 35° C | 48% | 1001.1 hPa | - | - | - | - |
| 1788142865 | 34.44° C | 47% | 1001.4 hPa | - | - | - | - |
| 1788142263 | 33.89° C | 50% | 1001.4 hPa | - | - | - | - |
| 1788141662 | 33.89° C | 51% | 1001.5 hPa | - | - | - | - |
| 1788141060 | 35° C | 48% | 1001.5 hPa | - | - | - | - |
| 1788140459 | 35.56° C | 51% | 1001.5 hPa | - | - | - | - |
* Rain since midnight (hover to see other rain measurements)
** Current wind speed in m/s (hover to see current wind gust speed)